Home   Weather   41°21'N, 81°35'W   Past weeks
Flag for USA

Past Weather in 41°21'N, 81°35'W, USA — Yesterday and Last 2 Weeks

Now
43 °F

Mostly cloudy.


Feels Like: 40 °F
Forecast: 45 / 40 °F
Wind: 5 mph from Southwest

Location: Cleveland-Hopkins International Airport

Current Time: Mar 21, 2019 at 8:28:21 am

Latest Report: Mar 21, 2019 at 7:51 am


Visibility: 7 mi

Pressure: 29.92 "Hg

Humidity: 89%

Dew Point: 40 °F

Location of 41°21'N, 81°35'WLocation

Past Weather in 41°21'N, 81°35'W — Graph

°F

41°21'N, 81°35'W Temperature Yesterday

Maximum temperature yesterday: 53 °F (at 2:51 pm)
Minimum temperature yesterday: 30 °F (at 3:51 am)
Average temperature yesterday: 42 °F

High & Low Weather Summary for the Past Weeks

 TemperatureHumidityPressure
High73 °F (Mar 14, 4:51 pm)93% (Mar 18, 8:58 am)30.48 "Hg (Mar 18, 8:58 am)
Low13 °F (Mar 6, 7:51 am)34% (Mar 20, 2:51 pm)29.54 "Hg (Mar 14, 8:51 pm)
Average36 °F65%30.19 "Hg
* Reported Mar 6 5:02 am — Mar 21 6:51 am, 41°21'N, 81°35'W. Weather by CustomWeather, © 2019

Note: Actual official high and low records may vary slightly from our data, if they occured in-between our weather recording intervals... More about our weather records

Advertising

41°21'N, 81°35'W Weather History for the Previous 24 Hours

Scroll right to see more
 ConditionsComfort  
Time TempWeatherWind HumidityBarometerVisibility
6:51 am
Thu, Mar 21
42 °FLight rain. Fog.No wind92%29.93 "Hg4 mi
5:51 am43 °FLight rain. Fog.6 mph89%29.93 "Hg6 mi
5:13 am43 °FLight rain. Overcast.5 mph89%29.93 "Hg8 mi
4:51 am42 °FLight rain. Fog.5 mph92%29.94 "Hg6 mi
3:51 am42 °FLight rain. Overcast.3 mph92%29.96 "Hg7 mi
2:51 am43 °FLight rain. Overcast.3 mph89%29.97 "Hg7 mi
1:51 am45 °FLight rain. Overcast.No wind80%29.98 "Hg10 mi
12:51 am44 °FLight rain. Overcast.3 mph82%30.01 "Hg9 mi
11:51 pm
Wed, Mar 20
44 °FLight rain. Overcast.3 mph79%30.03 "Hg10 mi
10:51 pm45 °FLight rain. Overcast.7 mph71%30.05 "Hg9 mi
9:51 pm44 °FLight rain. Mostly cloudy.6 mph76%30.06 "Hg10 mi
8:51 pm46 °FLight rain. Mostly cloudy.15 mph66%30.07 "Hg10 mi
7:51 pm46 °FLight rain. Mostly cloudy.13 mph61%30.08 "Hg10 mi
6:51 pm49 °FLight rain. Overcast.13 mph46%30.07 "Hg10 mi
5:51 pm50 °FCloudy.No wind38%30.07 "Hg10 mi
4:51 pm50 °FMostly cloudy.3 mph43%30.10 "Hg10 mi
3:51 pm51 °FMostly cloudy.14 mph35%30.11 "Hg10 mi
2:51 pm53 °FPartly sunny.14 mph34%30.14 "Hg10 mi
1:51 pm51 °FBroken clouds.15 mph36%30.17 "Hg10 mi
12:51 pm50 °FPartly sunny.14 mph39%30.20 "Hg10 mi
11:51 am47 °FPartly sunny.12 mph42%30.23 "Hg10 mi
10:51 am44 °FPartly sunny.15 mph43%30.26 "Hg10 mi
9:51 am42 °FPartly sunny.10 mph47%30.27 "Hg10 mi
8:51 am35 °FBroken clouds.7 mph61%30.29 "Hg10 mi
Weather by CustomWeather, © 2019

See weather overview